Theta_e
348 348 348 349 350 351 352 353 353 354 355 356 357 358 359 357 358 358 360 362 362 359 357 355 354 354 354 350 347 350 354 353 354 353 351 351 355 358 361 360 364 367 368 369 369 368 368 369 370 369 369 369 368 368 368 370 369 368 367 369 363 359 352 351 350 351 349 344 347 345 347 350 353 354 355 355 355 356 357 357 355 354 354 354 357
348 348 348 349 349 351 351 352 353 352 354 355 356 358 360 358 359 359 360 362 361 359 358 357 358 355 354 351 346 346 351 351 351 353 349 349 358 362 362 360 365 367 367 369 369 367 367 366 368 368 367 368 369 369 369 369 371 369 367 365 364 359 353 347 349 350 344 339 339 340 342 345 350 351 350 350 351 352 352 353 353 350 349 351 353
346 347 348 348 349 350 351 351 352 353 354 355 357 358 359 359 360 361 360 360 359 360 360 359 360 361 357 353 350 347 353 355 351 353 353 350 355 361 359 358 363 366 367 368 368 368 367 367 369 369 369 369 368 369 370 371 372 371 370 361 358 361 354 353 353 350 341 342 343 341 336 337 344 346 349 349 349 349 349 348 351 349 349 351 353
345 347 346 348 349 350 351 351 352 353 354 355 355 356 358 359 361 361 360 360 359 361 361 362 363 364 363 361 358 353 354 359 360 359 359 356 352 358 360 359 362 365 366 366 368 368 368 367 368 369 370 371 369 368 370 370 371 370 364 364 362 356 350 349 351 350 348 343 338 337 336 336 333 339 343 347 346 347 347 348 349 349 350 354 354
346 347 347 348 348 349 350 351 353 352 353 354 354 355 355 358 360 361 360 360 361 362 362 364 364 364 364 364 363 360 361 360 358 356 358 359 355 355 357 359 360 364 366 367 366 368 369 369 368 369 368 369 368 366 365 365 367 365 368 367 366 358 351 347 350 349 350 349 344 339 336 335 334 335 335 341 345 344 346 346 348 347 350 353 350
348 347 348 348 349 351 352 352 351 352 353 354 355 355 357 358 360 362 361 361 360 362 364 363 363 360 359 357 354 353 353 353 352 350 351 353 351 351 355 355 357 365 366 368 368 368 370 370 369 368 367 368 368 366 366 365 366 365 366 366 365 368 360 351 345 351 349 351 349 343 342 335 332 339 340 334 348 343 347 345 346 346 352 349 353
349 349 349 349 350 350 351 352 352 351 353 356 356 356 357 358 360 362 363 361 361 362 363 362 360 359 359 357 354 353 351 352 356 353 352 354 357 353 351 355 360 363 365 367 368 369 369 370 370 368 367 366 368 367 365 363 362 364 367 366 365 367 363 355 350 347 352 351 347 345 346 347 343 340 337 340 337 343 344 342 344 345 346 347 348
347 348 349 350 351 351 351 353 353 352 355 355 356 356 358 359 361 362 362 362 363 363 362 361 359 358 359 358 356 354 351 353 358 358 358 360 358 355 352 355 363 365 364 366 368 369 369 369 371 368 365 366 366 364 362 361 363 366 367 371 370 369 367 358 352 348 347 348 349 348 348 349 349 343 344 341 339 337 340 342 344 343 344 344 345
348 348 348 349 350 351 353 353 354 354 354 355 356 357 359 361 362 363 362 363 363 363 362 360 360 358 358 359 357 357 356 356 360 360 358 361 360 359 356 356 361 367 366 365 368 368 368 368 370 368 366 366 367 365 362 359 361 364 365 366 367 369 366 362 359 355 350 347 349 351 349 347 346 346 348 348 341 338 336 336 340 343 345 345 346
349 350 350 350 351 352 353 355 355 354 355 358 358 359 359 361 362 363 363 363 363 363 361 361 360 359 359 359 359 358 358 358 359 359 360 362 360 362 359 357 357 363 366 367 368 368 368 369 367 367 367 363 364 362 363 363 363 364 365 364 366 367 368 364 360 359 357 354 352 353 351 349 349 346 344 344 343 346 338 337 339 339 339 343 347
348 349 350 352 353 353 354 354 355 354 356 357 356 358 359 360 362 362 364 364 365 363 361 360 359 359 359 358 359 360 360 359 358 360 361 362 361 361 361 361 358 357 361 365 366 367 368 369 366 365 366 366 366 365 365 363 360 362 363 365 365 365 364 364 362 362 360 359 356 355 353 348 347 343 343 344 343 341 340 339 340 341 339 338 346
348 349 349 351 352 353 354 354 354 355 356 356 357 359 360 361 362 363 364 364 365 363 362 360 358 358 360 360 360 361 363 359 359 359 361 362 362 359 361 362 361 359 363 360 363 363 366 366 368 366 367 366 366 367 366 365 363 362 362 365 365 365 366 366 364 361 360 359 357 352 353 350 348 345 343 345 345 344 344 342 340 343 343 342 345
348 349 349 350 351 351 352 354 356 356 356 357 357 358 359 361 363 362 363 365 364 363 360 360 359 359 358 358 359 361 362 362 361 360 362 361 361 360 361 361 362 361 363 362 362 364 365 367 368 366 367 368 368 368 367 368 367 363 365 364 365 365 364 365 362 362 360 357 354 352 350 349 348 349 347 344 345 345 344 340 340 342 340 342 347
347 348 349 350 351 352 353 354 355 356 356 356 357 358 359 360 363 362 363 365 365 362 360 359 359 359 360 360 360 361 362 363 362 360 360 362 362 361 360 359 361 360 361 364 363 364 365 367 369 369 370 370 370 370 368 368 368 366 365 364 362 365 366 366 366 363 363 363 361 356 352 350 349 350 350 349 344 343 343 341 344 345 343 341 346
347 348 348 349 350 353 352 353 355 355 356 356 357 359 360 360 362 363 364 364 364 362 361 359 359 359 359 359 361 362 361 361 362 362 362 362 362 362 362 359 358 361 359 364 367 366 366 368 368 368 369 370 370 370 368 368 370 368 367 367 366 365 366 365 365 364 361 361 362 361 359 354 352 353 351 350 350 348 346 345 344 342 340 340 342
345 346 347 349 352 353 352 353 354 355 357 357 357 358 359 360 362 363 364 364 363 363 361 359 360 360 361 361 360 362 362 363 363 364 364 364 365 364 364 364 360 360 366 365 366 368 367 367 367 368 369 367 370 370 370 367 369 367 366 367 367 366 367 368 366 365 364 365 363 364 364 358 358 356 356 354 354 354 353 350 347 345 341 338 342
344 345 346 349 350 352 352 353 354 355 356 356 358 360 360 360 361 362 364 364 363 363 361 361 361 361 360 360 360 361 360 361 360 364 362 364 367 365 363 364 364 363 365 367 367 370 369 367 365 364 366 368 368 369 368 368 369 367 365 366 365 365 367 368 365 365 367 363 364 364 363 362 362 364 362 359 360 362 358 354 350 344 346 341 339
344 347 349 350 350 352 352 353 354 355 355 357 359 361 361 361 361 362 363 363 363 362 361 361 361 362 362 361 361 361 360 360 362 364 364 364 365 366 364 363 363 362 361 362 367 367 370 370 368 367 366 367 367 365 368 368 369 365 366 366 364 367 366 366 367 365 365 367 366 363 363 362 364 364 362 361 363 364 360 358 355 352 350 344 342
342 345 347 348 349 350 352 352 353 355 357 358 358 359 360 361 361 361 362 362 363 362 362 363 363 361 362 361 361 361 361 361 363 366 367 364 363 363 363 361 363 364 365 366 367 367 368 369 370 368 367 367 368 366 368 368 368 366 365 363 364 365 364 364 367 367 365 365 367 365 365 363 365 363 363 360 364 364 362 362 359 358 355 353 349
339 343 346 347 349 350 351 351 352 353 355 356 357 358 358 359 361 361 362 363 364 363 363 363 363 362 360 362 363 363 363 362 363 364 363 364 363 362 363 360 362 363 364 366 366 366 366 365 366 365 362 363 365 365 365 368 368 367 364 361 362 365 362 364 364 365 365 366 367 366 367 366 365 366 365 363 363 365 365 362 362 361 360 359 355
338 343 345 347 348 349 351 352 352 353 356 356 356 356 357 358 359 360 360 361 361 361 362 363 363 363 363 362 361 362 363 363 363 363 364 365 364 364 363 363 364 363 364 365 366 366 365 366 364 365 362 363 365 364 366 367 368 367 366 367 365 365 363 362 365 365 365 367 368 367 368 368 369 367 365 363 362 364 366 363 363 361 359 361 359
340 342 344 346 348 349 350 352 352 352 353 354 354 355 357 357 358 359 359 359 359 360 362 363 364 363 363 363 363 362 363 364 363 364 363 364 364 365 365 365 362 365 365 364 366 366 366 365 365 365 367 365 367 369 364 366 366 367 367 365 365 365 364 363 364 364 366 365 368 369 367 368 370 369 365 362 361 359 362 361 361 361 359 360 363
340 342 342 345 348 350 350 351 351 351 352 353 354 354 355 357 358 358 357 358 359 360 361 364 363 364 364 365 364 363 364 364 363 362 361 362 364 365 365 364 362 362 366 365 364 365 367 368 366 366 368 367 368 369 367 365 366 368 368 364 364 365 365 363 362 363 365 367 366 368 366 366 367 367 368 366 363 361 360 360 360 360 360 360 362
340 341 341 345 348 351 351 351 351 351 353 353 354 355 356 356 357 357 357 358 359 360 361 363 364 363 364 365 365 365 364 364 362 361 361 362 362 363 364 363 363 361 362 366 365 364 366 368 367 367 368 369 368 368 367 367 366 368 368 367 366 366 366 366 364 364 364 365 365 367 365 364 366 366 367 366 365 366 365 364 363 363 363 362 363
341 341 343 345 346 349 350 351 353 352 351 354 353 354 355 355 356 356 356 358 359 361 361 362 363 362 363 364 364 363 363 363 362 361 361 361 361 361 364 363 363 361 361 364 365 366 366 367 366 367 367 368 368 368 368 365 365 367 367 366 367 367 367 367 366 366 365 366 366 365 365 366 367 366 366 366 364 365 367 365 364 365 365 365 365
346 344 344 344 348 351 352 353 353 352 351 354 355 354 354 354 355 357 357 358 359 360 361 362 362 361 363 364 365 363 362 363 362 361 361 361 360 361 362 363 363 362 361 360 364 364 364 366 368 368 368 369 370 369 369 368 363 365 367 366 366 367 366 368 368 365 367 368 366 367 367 367 367 365 365 364 367 367 368 365 365 365 366 364 363
341 344 344 348 351 351 352 354 352 351 351 353 353 353 353 355 356 356 358 358 360 360 361 361 362 361 363 365 364 363 363 362 363 362 361 361 361 360 361 362 363 362 361 360 361 364 365 366 368 368 367 369 370 369 370 370 367 365 365 367 364 365 366 367 367 365 364 365 367 367 368 368 367 367 365 364 366 368 366 366 366 367 367 364 361
339 342 344 346 348 351 353 353 352 350 351 352 354 353 354 355 355 356 357 357 358 360 360 361 362 362 364 364 365 366 363 364 365 366 364 362 362 361 362 363 364 363 360 360 360 361 364 365 366 367 368 368 370 370 371 371 370 367 365 366 367 364 363 365 365 366 364 363 364 365 365 368 369 370 370 369 368 366 368 367 367 367 366 364 362
336 342 346 346 347 352 354 354 352 351 351 352 353 353 355 356 357 357 356 358 360 360 360 360 362 362 364 366 367 367 366 366 366 366 365 364 363 364 364 364 365 364 361 361 361 361 363 365 366 366 367 367 366 368 369 369 369 369 367 364 366 366 364 362 363 363 365 365 362 361 362 363 368 370 369 368 369 368 368 366 368 368 367 363 360
329 340 344 349 349 353 354 355 355 352 352 351 352 354 353 354 355 355 357 358 359 360 360 361 361 362 365 367 367 368 367 367 366 366 367 366 365 365 364 364 364 364 365 364 364 363 362 363 364 366 367 366 365 367 362 348 354 368 369 364 365 367 367 365 364 363 361 362 363 363 359 365 370 369 364 356 351 352 352 358 364 367 366 364 359
339 333 341 346 350 352 355 355 355 352 351 350 352 354 354 354 355 355 357 358 359 360 361 361 362 364 365 367 368 367 367 366 367 367 368 367 366 366 366 365 365 366 366 367 365 363 361 362 363 364 365 365 365 364 346 336 338 344 365 369 366 367 369 368 366 367 365 362 362 364 366 366 370 363 365 349 347 343 343 342 342 345 355 365 363
345 348 342 339 346 349 354 354 353 351 351 351 354 354 354 353 355 355 355 357 358 359 360 362 362 364 366 367 367 367 367 367 367 367 368 368 367 367 366 366 365 365 366 366 364 364 365 363 362 364 364 365 366 351 335 333 335 336 346 365 366 366 366 367 368 365 365 365 363 362 363 364 367 369 369 370 356 344 339 338 337 337 339 340 343
349 350 352 347 338 344 353 353 352 351 350 351 353 353 354 354 356 357 357 356 358 359 361 362 363 364 367 367 368 367 366 367 368 368 368 368 367 366 366 366 364 366 367 366 366 365 365 364 363 364 363 364 365 345 331 331 333 332 334 348 361 364 363 364 366 367 367 367 367 366 364 363 363 371 367 368 371 371 344 333 335 336 336 334 332
349 351 353 352 347 341 345 353 355 354 350 353 355 353 355 356 358 359 358 359 360 361 363 362 363 365 366 368 368 367 367 367 368 368 368 368 367 366 367 366 366 367 366 366 365 365 365 366 365 364 364 364 364 345 329 328 329 329 330 339 362 361 362 362 364 366 366 368 368 367 366 366 367 368 370 368 368 368 369 369 361 358 361 355 336
349 351 353 354 348 342 342 350 353 351 353 353 353 354 356 356 358 357 358 359 360 361 362 363 363 365 367 367 367 367 367 367 368 368 368 367 366 367 367 366 364 364 365 365 365 365 366 366 365 364 363 362 361 337 326 325 325 325 327 334 361 361 361 362 364 365 368 368 369 369 369 368 369 369 369 369 368 368 369 368 366 364 368 370 369
349 351 353 356 351 343 338 343 354 352 351 352 353 354 355 355 358 357 358 360 361 362 362 364 363 365 366 366 366 366 367 367 367 367 366 366 366 367 366 366 365 363 365 365 366 365 365 365 365 365 362 362 362 335 324 323 322 323 326 350 360 361 362 362 363 365 366 369 369 369 370 369 369 369 364 349 355 368 367 366 365 364 363 364 363
349 351 353 356 354 346 342 347 353 351 349 352 353 353 353 354 356 357 358 359 361 361 362 363 362 364 365 365 365 364 365 366 366 365 365 365 365 366 366 367 364 363 362 362 364 363 365 364 364 365 364 363 363 343 322 320 320 320 329 357 360 361 361 362 363 364 366 367 369 371 370 368 369 370 357 336 335 348 365 364 363 363 363 362 361
350 353 355 353 348 347 347 347 352 351 351 354 355 353 355 356 356 357 357 359 359 359 361 363 362 364 364 365 365 365 365 365 366 365 364 364 365 366 366 366 364 362 359 361 363 364 365 365 363 363 363 363 364 347 320 318 318 318 335 359 361 360 361 362 363 365 366 367 368 365 368 368 369 368 346 332 331 349 365 364 363 362 361 360 362
351 352 352 347 348 349 347 351 354 351 353 357 357 355 354 357 357 357 357 357 357 359 360 362 362 364 364 364 364 364 365 364 365 365 365 364 365 365 365 366 364 364 362 363 363 363 363 364 363 362 356 360 364 350 319 319 317 316 336 361 361 361 360 361 362 363 366 366 367 365 361 358 362 359 339 328 327 348 365 364 363 362 358 359 361
351 353 355 354 352 352 349 351 350 352 355 358 356 354 356 357 356 355 355 356 357 359 362 363 363 363 365 364 364 365 365 364 365 365 366 365 365 364 365 364 364 364 362 361 361 362 362 362 363 362 362 361 361 365 346 317 316 314 322 359 362 360 360 361 362 362 363 366 366 368 362 335 333 333 331 322 321 329 361 364 364 361 360 357 364
349 351 356 353 352 351 350 350 352 356 355 357 355 354 354 357 357 356 355 355 359 361 362 363 364 363 363 363 364 365 364 364 365 365 365 365 365 364 363 364 362 362 362 362 361 361 361 363 363 364 364 363 363 363 364 316 315 313 317 331 360 361 362 362 363 362 362 363 364 365 367 341 326 326 325 318 316 319 335 364 364 361 362 368 357
350 352 354 355 350 352 352 351 356 356 356 355 356 355 358 359 357 356 358 359 361 362 363 364 364 363 362 363 363 365 365 363 366 367 366 365 366 365 365 364 362 363 364 363 365 363 362 362 364 364 366 366 364 353 368 323 316 313 315 318 352 361 362 363 363 363 362 362 364 363 366 346 325 324 322 317 314 318 321 357 362 336 332 333 361
347 350 352 353 353 350 350 351 354 356 356 356 356 358 359 358 357 360 360 361 361 363 364 365 365 363 363 363 364 365 364 363 364 366 367 366 366 365 366 366 365 365 364 364 365 364 363 362 364 365 365 367 368 367 339 348 317 313 312 314 324 343 335 364 362 361 360 360 362 365 365 343 321 317 316 314 314 316 324 343 329 328 327 328 343
346 348 352 351 355 356 351 352 354 356 356 357 357 359 359 360 360 364 362 362 364 364 366 365 365 364 364 364 364 365 366 366 367 367 367 367 366 366 366 366 366 364 362 362 362 361 360 359 360 360 363 365 370 367 347 335 334 312 312 311 314 320 330 356 362 361 361 360 363 365 361 318 312 308 309 311 313 317 339 324 320 321 323 333 354
342 348 352 352 352 356 356 353 354 356 358 359 358 360 362 361 364 366 363 363 365 366 366 365 365 364 365 366 366 367 367 367 367 367 367 366 368 367 365 367 367 364 362 361 359 361 361 360 360 360 362 364 366 366 368 350 330 317 313 311 313 316 318 322 357 360 363 357 323 310 307 309 309 308 308 311 313 317 320 316 315 319 333 353 355
339 345 349 352 353 353 356 358 359 359 359 360 361 363 363 363 366 366 365 366 368 368 367 366 366 365 366 367 366 366 368 368 368 367 368 368 368 366 365 366 364 362 362 360 360 361 361 361 361 362 362 364 365 366 368 366 340 329 321 314 314 314 318 319 333 352 325 316 313 312 310 310 312 319 338 350 351 342 317 318 319 327 344 347 342
335 342 346 349 352 353 353 355 357 360 360 358 360 360 364 366 368 366 366 370 370 369 367 366 367 366 367 367 367 364 366 367 368 367 368 368 367 367 367 365 363 362 362 361 361 362 361 360 360 361 363 364 365 365 367 368 364 355 351 337 326 328 319 323 331 346 337 341 330 336 339 329 332 330 338 332 330 323 328 330 335 341 345 344 340
336 340 345 345 346 349 352 354 355 358 362 363 364 366 368 369 367 365 365 368 366 367 365 366 366 366 366 367 366 364 364 366 366 366 365 366 367 367 366 365 364 363 362 361 362 360 359 361 361 362 364 363 363 364 366 366 366 365 363 358 349 346 344 343 345 349 353 354 351 328 328 343 344 343 339 336 335 336 336 336 341 341 340 339 341
333 337 341 343 344 345 348 350 353 357 359 361 362 364 366 367 366 366 366 367 366 364 366 366 365 366 365 367 367 366 365 365 367 368 368 374 373 367 367 368 370 370 368 365 364 362 363 364 364 363 362 362 365 363 366 345 377 346 363 365 360 355 354 351 345 334 353 355 350 349 349 347 346 342 337 335 334 335 335 337 338 338 339 339 340
332 335 336 339 343 345 345 347 350 354 356 358 360 363 366 367 370 371 371 369 367 365 365 366 366 366 367 366 366 366 365 364 367 366 364 342 308 300 316 354 367 330 318 319 323 363 365 369 364 366 368 366 365 365 328 330 325 323 318 307 321 331 331 345 330 323 343 353 349 349 348 346 344 340 337 335 333 333 333 333 335 331 336 337 337
330 331 332 334 338 342 343 344 346 349 352 354 356 359 361 365 368 371 371 368 369 365 363 364 365 366 364 367 367 368 368 367 368 369 369 359 354 339 299 296 305 313 306 295 294 295 300 308 340 369 341 306 308 303 305 308 309 306 303 302 306 309 311 312 315 343 351 353 348 348 346 344 341 340 336 333 332 332 333 333 334 333 333 331 331
Wind_Speed
16 19 20 21 20 18 17 16 16 17 16 16 17 16 16 14 14 14 12 12 11 10 10 9 9 8 8 9 9 7 7 6 6 6 5 5 4 4 3 4 4 4 4 4 4 3 3 2 1 1 1 1 0 1 2 3 2 2 1 1 2 2 1 0 2 1 2 1 2 2 2 1 3 1 0 1 1 1 2 1 1 1 3 2 2
16 16 19 20 18 19 18 16 17 19 17 17 18 17 16 16 15 14 12 12 11 11 10 9 9 9 9 9 8 8 8 7 7 6 7 5 5 5 5 4 4 5 5 4 4 4 3 3 2 1 1 1 0 1 1 1 2 1 1 0 1 2 0 1 3 1 2 1 2 2 1 3 2 0 2 1 0 1 2 3 2 1 2 2 2
18 19 20 20 22 21 18 16 17 19 18 18 17 17 17 16 14 14 12 13 12 11 10 10 9 8 8 8 8 7 7 7 7 6 6 6 7 7 6 5 5 5 6 5 4 4 4 3 3 2 2 1 1 1 0 1 1 1 1 2 2 1 1 1 2 2 1 4 2 1 1 2 3 1 0 1 1 1 0 2 2 1 3 2 1
19 20 22 21 21 20 19 18 17 17 17 17 18 18 15 15 14 14 13 13 12 12 11 10 9 8 7 6 8 7 6 5 5 5 6 7 7 7 6 6 7 6 7 6 5 4 4 4 3 2 2 2 2 2 1 1 1 1 1 0 1 1 1 2 2 2 4 2 1 1 2 2 3 2 3 1 1 1 1 0 4 1 3 1 0
19 20 20 20 21 21 21 19 18 18 18 18 18 17 13 17 16 15 13 13 12 12 12 10 9 9 7 6 6 6 4 6 6 7 7 7 7 7 7 7 7 7 7 7 6 5 5 5 4 3 3 3 3 3 2 2 2 1 0 1 2 2 1 2 2 2 3 1 1 1 2 3 4 4 3 3 2 0 0 1 4 3 1 1 2
19 21 22 22 21 20 19 20 20 18 18 18 18 18 16 16 17 16 13 13 13 14 13 11 10 9 9 9 9 8 8 7 8 8 8 8 8 8 8 8 8 8 7 7 7 5 5 5 5 4 4 3 3 3 2 2 3 3 1 2 1 1 2 1 2 1 2 2 1 2 4 5 2 5 3 3 2 3 2 1 2 4 2 2 2
18 18 19 20 21 21 21 20 20 20 19 17 17 17 18 16 17 17 14 13 13 14 15 12 11 10 12 11 10 10 10 9 8 7 7 6 6 7 7 8 8 9 8 8 7 6 6 5 5 5 4 4 3 3 4 4 4 3 2 2 1 1 1 0 1 3 2 2 2 1 1 2 3 3 3 3 2 2 4 2 2 1 3 3 4
18 20 21 22 22 23 23 22 20 19 18 18 17 17 19 17 17 17 14 13 13 13 15 14 11 12 13 12 10 10 10 9 9 8 7 6 6 8 7 7 8 8 8 8 8 7 6 6 6 5 5 4 3 4 4 4 2 2 3 2 1 2 2 1 0 1 2 1 1 1 2 0 2 3 2 3 3 3 1 2 3 3 1 1 1
19 19 21 22 23 23 22 22 21 20 19 18 18 17 17 17 17 17 16 15 14 16 14 14 12 14 13 10 10 9 9 9 8 8 8 8 8 7 7 7 7 8 8 8 8 8 7 6 6 6 5 5 4 4 4 4 4 4 4 3 3 3 2 1 1 1 2 2 3 1 1 1 2 2 1 2 2 2 3 3 2 2 2 1 1
18 20 20 22 22 22 22 20 20 19 18 17 17 17 17 16 17 18 17 14 14 16 15 16 17 15 12 13 13 10 9 8 8 8 9 8 9 8 8 7 7 7 8 9 8 8 8 7 7 7 7 6 5 4 4 4 4 4 4 4 3 3 2 2 2 1 1 1 0 1 1 1 2 2 3 4 0 1 2 3 3 1 0 2 0
17 19 20 21 21 20 20 21 21 20 17 18 18 17 17 18 18 19 18 14 15 16 17 17 17 16 13 15 14 12 12 11 9 9 9 9 9 9 8 8 8 8 8 8 10 9 9 8 8 7 7 6 5 5 5 5 5 6 5 5 4 4 3 2 2 2 2 2 2 2 2 3 2 2 2 3 2 1 2 4 3 5 6 4 1
18 17 18 20 20 21 20 21 21 21 19 19 18 17 17 17 18 19 18 17 16 16 17 16 16 17 15 16 14 13 12 11 12 11 11 11 10 9 8 7 7 8 8 8 8 10 9 8 8 7 6 6 6 5 5 4 4 4 4 4 4 4 3 3 3 3 3 3 4 3 3 4 2 3 3 2 2 2 3 4 4 3 2 3 3
16 17 17 18 20 20 22 21 20 21 19 21 20 19 18 18 20 20 19 19 17 17 17 18 17 17 16 16 15 14 13 12 12 11 11 10 9 9 9 8 8 8 8 8 8 9 8 8 8 7 6 6 6 6 5 5 4 4 4 5 5 4 4 4 3 4 3 3 3 3 3 3 2 2 2 4 2 1 3 4 5 5 4 3 2
16 17 18 19 19 20 21 21 21 20 22 21 21 19 18 17 19 20 20 19 17 17 17 18 18 17 16 15 14 13 13 12 11 11 11 9 9 10 10 9 9 9 9 9 8 9 8 8 8 8 7 7 7 7 6 6 5 5 5 5 6 5 4 5 5 4 4 4 4 3 4 3 3 3 3 3 4 3 3 3 3 4 5 5 3
16 17 19 20 20 22 21 21 21 21 23 22 20 19 18 18 19 20 20 20 19 18 17 19 17 18 16 16 15 13 12 12 11 10 10 11 10 10 10 9 9 8 9 8 9 9 8 8 8 8 8 8 7 7 6 6 6 5 4 5 5 4 5 5 5 5 4 4 4 4 4 4 3 2 3 3 3 3 3 3 3 5 5 5 4
17 18 19 20 20 21 20 20 21 20 22 21 22 20 19 18 19 21 21 20 20 20 18 18 18 17 17 17 17 15 12 12 11 10 10 10 10 10 10 10 9 7 8 8 9 9 9 9 8 9 8 8 8 8 7 6 6 6 5 5 6 4 5 6 5 5 5 6 5 4 4 4 3 3 3 2 2 2 2 3 3 3 5 5 4
16 17 18 20 20 21 21 22 21 21 22 22 22 21 21 20 19 20 20 19 20 20 19 18 18 18 18 18 17 16 16 15 13 13 13 12 11 10 9 10 9 8 8 8 9 9 9 9 9 9 9 9 9 8 8 7 7 6 6 6 6 6 5 6 6 5 5 5 5 6 5 4 4 3 3 3 2 2 3 2 3 4 4 5 6
18 19 19 20 21 22 21 20 23 24 24 23 23 22 20 20 20 21 21 21 20 20 20 19 19 17 17 18 18 17 16 16 14 13 12 11 11 10 10 9 10 10 9 8 8 10 9 9 8 8 8 9 9 9 8 8 8 7 7 6 6 5 6 5 6 6 6 5 5 5 5 5 4 5 5 5 3 4 4 4 4 4 4 5 5
16 18 17 18 19 21 22 23 24 23 22 23 23 22 21 20 20 22 23 23 22 19 19 17 18 15 14 17 19 17 16 14 14 13 11 12 12 11 11 10 10 10 9 9 9 9 9 9 9 9 8 9 9 9 8 8 8 7 7 7 6 6 6 7 6 6 6 6 6 6 5 5 4 5 4 4 4 5 4 4 4 4 5 5 5
16 17 18 19 21 23 24 24 24 24 24 23 25 22 24 22 21 21 20 19 20 20 19 19 19 17 16 16 17 16 16 15 15 14 13 13 13 12 12 12 11 10 10 10 10 10 9 10 9 9 10 10 9 9 9 9 8 7 7 7 7 7 8 7 7 7 6 6 7 7 6 5 5 5 5 5 4 5 5 5 5 5 5 5 5
16 17 18 20 21 22 23 22 22 21 20 20 21 23 22 21 21 22 22 23 23 21 20 18 17 17 18 18 18 17 18 16 16 15 14 13 12 12 12 11 10 11 10 11 11 11 10 10 10 9 10 9 9 9 8 8 8 8 7 7 6 7 8 7 7 8 7 7 7 7 7 7 6 6 5 5 6 6 6 6 6 6 6 6 6
17 18 18 19 20 21 21 19 18 19 20 23 22 21 22 23 22 22 21 21 22 21 20 19 18 17 19 19 19 17 17 16 17 15 14 13 12 12 12 11 12 11 11 11 11 11 11 11 11 10 9 9 9 9 9 8 9 9 9 7 8 8 8 8 8 8 8 7 7 7 7 7 7 7 7 7 7 6 6 6 6 6 6 6 6
16 17 18 18 19 19 19 21 22 23 22 24 22 22 23 24 22 21 22 23 22 21 19 18 18 18 19 18 18 17 16 18 18 15 16 15 14 13 12 12 12 11 11 11 11 11 11 11 11 10 10 10 10 10 9 9 9 10 10 9 8 9 9 9 9 9 9 8 8 8 8 7 6 7 7 7 7 7 6 6 7 6 7 7 7
16 16 16 15 15 16 16 19 20 19 19 21 20 20 20 20 21 21 23 23 22 20 19 19 18 19 20 18 18 17 19 18 18 16 17 16 14 14 13 13 13 12 12 11 12 12 11 11 11 11 11 10 11 10 10 10 10 10 10 10 9 9 9 9 9 9 9 9 9 8 8 7 7 7 7 6 6 6 6 6 7 7 7 8 7
13 13 13 13 14 17 18 19 19 20 21 20 21 21 21 21 21 21 21 22 21 19 19 20 20 20 20 19 19 18 18 19 18 16 18 17 16 14 13 14 14 13 13 12 11 12 11 12 11 12 12 12 11 11 11 11 10 10 10 10 9 10 10 10 9 9 9 9 9 9 8 8 8 8 7 8 7 8 7 7 7 7 6 6 6
8 10 11 14 15 15 16 17 17 19 20 19 19 20 21 20 22 21 20 20 21 19 20 19 19 20 19 20 19 18 19 19 19 18 18 17 16 15 14 14 14 14 14 13 12 12 12 13 12 12 12 12 11 11 11 11 11 11 10 10 9 10 10 10 10 10 10 9 9 9 9 9 9 9 8 8 8 9 8 8 8 7 6 6 7
10 11 11 10 11 15 17 18 19 20 19 18 20 20 20 19 21 21 19 20 20 19 19 19 19 20 18 19 19 19 18 18 17 17 16 16 16 16 16 15 14 14 14 14 13 13 12 13 13 13 12 12 12 12 11 11 11 11 10 10 10 10 10 9 9 10 10 10 10 9 9 10 10 10 9 9 9 9 8 9 8 7 7 6 7
8 11 13 15 16 17 18 19 19 19 20 18 19 19 19 19 20 20 20 19 18 19 20 19 19 18 18 19 18 18 18 17 16 15 15 15 15 15 15 14 13 14 15 15 15 14 13 12 13 13 12 11 11 11 11 11 11 11 11 11 10 10 10 10 9 9 10 10 10 10 10 10 10 10 10 9 9 8 7 8 7 6 6 6 6
11 13 14 15 16 15 18 18 19 20 21 21 19 19 18 18 18 19 19 20 19 19 20 19 18 18 18 18 17 16 15 16 15 15 15 15 15 15 14 14 13 13 13 14 14 14 13 13 13 12 12 12 11 11 10 11 11 12 11 11 11 11 10 10 9 10 10 10 10 10 10 10 10 10 11 9 8 6 6 7 6 6 7 7 7
7 12 15 16 17 18 19 19 19 21 21 20 19 19 20 20 20 21 20 19 18 19 19 19 19 18 17 17 17 15 15 15 15 15 15 15 14 14 14 14 14 14 13 12 13 13 14 13 13 13 12 11 11 10 11 14 12 10 11 10 9 10 10 9 9 9 10 10 10 10 9 10 9 9 10 11 12 11 10 10 8 7 7 7 7
6 5 11 13 16 17 18 19 20 21 22 20 19 19 20 21 20 20 20 20 20 19 19 19 19 17 17 16 16 15 15 16 16 15 15 15 15 13 13 14 13 13 13 12 12 14 14 13 13 12 13 12 11 10 14 15 15 13 10 10 9 9 9 9 10 10 9 10 9 9 9 9 9 9 11 14 14 15 15 14 15 14 11 9 8
9 7 7 9 13 16 17 20 22 23 23 21 18 19 20 21 21 21 21 20 20 19 20 18 18 17 17 17 16 16 16 16 15 16 15 15 14 14 14 14 13 14 12 12 13 13 13 12 11 12 13 12 12 12 15 16 16 16 13 10 9 9 9 9 10 10 9 9 9 9 9 8 9 10 11 11 14 16 16 15 15 15 15 15 12
13 12 10 11 13 14 18 20 21 21 21 23 22 20 20 21 21 20 19 19 19 19 18 18 17 18 17 16 16 16 16 16 16 15 14 14 15 15 14 14 15 13 12 12 12 12 13 12 12 12 12 12 12 13 16 17 17 17 17 14 10 9 9 10 10 10 10 9 8 8 8 8 7 10 10 10 10 11 15 18 16 16 16 15 15
14 13 13 12 11 13 15 19 19 21 24 23 21 21 19 18 17 17 19 17 17 17 17 18 17 17 17 17 16 16 16 16 15 15 15 15 15 16 15 13 12 12 12 13 13 13 12 12 12 12 12 12 13 12 17 17 17 17 17 14 12 12 11 10 10 10 9 10 10 9 8 8 8 9 9 10 10 11 9 8 10 10 11 14 17
15 15 14 13 13 14 16 17 20 21 19 18 18 17 16 17 18 19 19 17 18 17 16 17 17 17 16 16 17 16 16 16 16 15 15 15 16 14 14 13 13 13 13 13 13 13 12 13 13 13 13 13 13 13 17 18 18 18 17 14 12 12 11 11 11 11 11 10 10 9 10 9 9 9 9 10 10 10 9 9 10 10 10 11 10
16 17 17 15 15 15 17 17 17 17 19 20 20 19 18 18 18 18 18 18 17 16 16 16 17 16 17 17 18 17 16 16 16 16 16 16 15 15 14 13 12 12 12 12 12 12 13 14 14 14 14 14 13 15 16 18 18 18 17 11 12 12 12 11 11 11 11 11 11 11 10 10 10 10 10 11 10 10 10 11 10 11 11 11 11
18 18 19 16 15 15 15 14 14 16 18 19 18 19 19 18 18 18 18 18 17 17 17 17 17 17 18 17 17 17 16 16 16 16 16 16 15 15 14 12 13 13 13 13 12 13 12 14 15 14 15 13 13 13 17 18 18 19 14 11 12 11 11 12 12 11 11 11 11 11 12 10 11 11 11 12 13 12 12 12 12 12 11 11 11
17 17 17 16 14 13 13 14 17 18 19 17 18 19 18 18 18 17 18 18 19 19 17 17 17 17 17 17 17 17 16 16 15 16 16 15 15 13 14 13 14 14 14 14 13 12 13 13 15 15 15 14 14 13 18 18 19 20 17 13 11 11 12 11 12 12 11 11 12 14 13 12 11 10 11 13 13 11 12 12 12 12 12 12 11
15 16 15 13 10 11 13 14 16 18 17 17 19 20 19 18 18 19 19 18 18 18 17 18 18 17 16 16 16 16 16 16 16 16 15 15 15 14 13 12 13 13 13 12 12 12 12 12 13 15 13 15 14 12 18 19 20 21 18 12 12 11 12 12 11 11 11 10 11 11 15 14 12 11 9 12 13 12 12 12 12 12 12 13 12
13 12 12 11 8 10 12 15 18 18 18 19 20 19 19 18 18 18 19 19 19 18 18 16 15 15 15 15 15 16 16 16 16 15 14 14 12 12 13 13 13 12 11 12 12 12 13 12 12 14 13 15 15 12 15 21 21 21 22 14 12 12 12 12 11 10 9 10 11 11 12 17 17 14 12 12 14 16 12 12 11 12 12 13 11
13 11 12 7 6 10 12 15 14 16 17 19 18 18 18 17 18 18 19 19 17 15 15 15 15 15 15 16 15 16 16 16 15 14 14 13 13 13 13 13 13 12 11 12 13 12 12 12 12 12 12 14 13 15 12 21 21 22 22 19 13 13 12 11 10 10 10 9 9 10 9 15 19 19 17 14 14 16 14 12 12 12 12 5 6
12 8 8 4 7 10 12 14 13 16 17 18 18 17 16 17 17 19 19 16 14 15 15 15 15 16 16 16 16 14 15 14 14 13 13 13 13 13 12 12 11 11 12 12 11 11 11 11 11 12 12 12 12 15 11 18 21 22 22 24 14 14 12 11 10 11 10 10 10 9 10 11 20 19 18 16 16 14 16 11 12 14 11 5 10
12 9 6 5 3 7 11 13 14 16 16 17 18 17 16 16 18 18 15 15 15 15 15 15 15 15 15 15 15 16 14 12 13 14 14 13 12 12 12 11 11 11 11 12 12 11 11 10 11 11 11 12 12 10 14 11 19 21 23 22 21 15 12 12 11 12 11 11 10 9 8 12 17 17 17 16 15 17 12 11 15 13 10 9 5
12 8 9 4 2 4 8 11 12 14 14 14 16 15 15 16 17 13 13 14 14 14 14 14 14 15 14 14 14 15 14 12 13 13 13 13 13 12 12 11 11 11 11 12 12 12 12 13 13 12 11 11 10 12 12 15 15 21 20 22 21 19 12 12 11 11 9 9 9 9 5 15 14 14 13 13 14 13 10 15 14 11 9 7 6
15 15 13 7 0 1 1 5 8 12 10 11 13 13 14 14 12 12 13 14 14 14 14 14 14 14 14 13 13 13 13 13 13 13 13 13 13 13 12 11 11 12 12 12 12 11 11 11 12 11 11 11 12 12 11 14 19 19 20 20 20 21 19 13 9 12 10 1 9 15 15 13 13 13 13 11 10 13 12 11 12 11 8 6 5
15 16 14 10 4 2 4 4 4 6 6 8 9 10 12 11 11 11 13 12 13 13 14 14 13 13 14 14 14 14 13 13 14 12 13 12 13 13 12 12 12 13 12 12 11 12 12 12 11 12 11 12 12 11 12 10 14 16 16 19 20 20 20 17 14 3 11 12 11 13 14 14 12 12 10 8 8 7 8 10 10 9 5 5 3
15 15 15 11 9 6 5 5 6 4 5 6 6 7 8 9 10 11 12 12 12 13 12 12 12 12 13 13 14 12 12 13 14 12 12 12 12 12 12 12 13 12 13 12 12 12 12 12 12 11 11 11 11 11 11 10 9 9 9 10 12 12 14 11 10 6 7 6 10 10 9 10 9 10 8 10 10 11 8 5 5 6 6 4 4
16 16 15 14 14 13 11 8 6 6 4 5 5 5 7 8 9 10 11 10 11 11 12 12 13 12 11 12 12 12 13 11 13 13 12 12 12 12 12 13 13 13 13 13 13 13 13 13 12 12 12 11 11 11 10 11 10 9 10 10 12 11 10 11 11 12 12 11 7 8 10 8 8 7 7 6 6 6 6 7 7 6 5 5 4
16 14 14 13 14 14 13 13 12 9 7 6 5 4 5 6 6 7 8 10 10 11 10 11 11 11 10 10 11 11 12 10 11 11 9 2 5 10 12 12 12 12 12 13 14 12 12 12 12 12 11 11 10 11 11 9 6 4 7 9 11 11 12 11 14 14 12 12 9 10 10 9 9 9 8 7 7 7 7 7 8 7 7 7 7
15 12 14 14 15 16 15 14 12 11 10 10 10 8 5 3 4 5 7 9 9 10 10 10 10 9 9 10 10 10 11 10 9 11 7 5 8 12 10 2 3 10 13 12 10 3 3 7 11 11 4 8 7 2 5 10 9 8 9 11 5 12 12 10 14 17 13 12 11 10 10 11 11 10 10 9 9 8 8 8 8 8 7 7 7
14 15 16 16 15 15 15 15 13 12 12 11 11 10 9 7 5 2 8 8 9 8 8 8 9 9 9 10 8 8 9 9 8 9 6 8 5 7 14 13 10 9 11 12 12 12 12 11 7 0 8 15 11 12 14 13 13 13 11 11 12 13 13 15 17 14 11 12 10 10 10 10 10 10 9 9 9 9 9 9 9 9 8 9 8
Wind_Direction
185 185 186 185 185 183 183 181 183 184 186 183 182 181 182 181 179 181 182 181 177 179 182 188 187 186 194 198 199 196 201 203 210 215 218 213 199 204 187 207 204 210 212 218 227 225 235 238 187 200 217 163 176 49 40 49 80 47 47 9 21 39 20 118 88 359 53 114 100 103 107 84 122 187 210 198 177 160 130 160 97 106 101 125 132
180 182 187 185 187 184 184 182 183 184 186 185 186 184 183 184 184 181 180 183 185 184 183 190 191 191 188 195 199 198 190 199 203 209 211 205 187 199 203 216 215 214 217 220 231 231 225 223 208 218 236 230 347 22 39 116 103 46 41 175 100 27 3 349 69 20 194 157 123 90 108 123 45 174 199 147 173 126 150 132 104 15 89 110 110
185 184 185 187 186 185 186 186 187 188 185 186 186 185 184 187 187 183 183 184 188 186 186 191 191 195 197 194 200 200 195 199 207 199 205 208 191 196 208 207 211 217 218 220 226 223 226 227 220 196 234 232 220 218 192 160 139 63 291 345 359 118 5 73 107 298 345 71 70 294 96 130 128 97 275 114 67 63 116 121 75 88 73 58 43
186 185 186 187 185 185 186 187 187 187 186 188 187 188 186 188 187 186 186 187 187 188 190 191 190 188 197 198 196 212 196 185 193 188 197 211 206 192 198 202 206 217 214 219 217 221 223 223 225 217 211 224 233 231 205 214 173 186 263 137 288 327 134 111 129 110 340 66 146 25 46 348 116 129 136 328 123 150 278 66 126 213 125 49 157
187 186 187 186 187 188 186 186 186 188 189 189 189 188 189 188 187 186 186 187 186 186 187 187 181 178 182 180 180 188 171 180 187 199 204 204 212 202 200 199 204 215 214 216 224 216 221 226 227 219 218 218 227 222 221 241 227 247 155 267 263 328 19 102 123 140 106 352 9 329 159 169 37 48 360 71 318 96 164 192 116 228 101 229 284
189 187 187 187 188 186 187 188 188 189 190 190 190 189 189 187 185 184 185 186 188 185 184 185 184 184 183 181 182 186 192 194 201 206 206 205 214 209 198 201 202 209 212 217 219 220 218 222 222 225 217 218 224 241 238 222 222 252 197 268 241 236 327 53 131 132 87 111 6 321 343 1 351 11 315 75 352 332 156 196 308 323 34 258 239
193 191 188 187 187 188 188 190 192 191 191 188 188 189 189 187 186 184 185 187 189 187 186 192 188 193 197 199 193 194 196 203 208 212 215 207 214 211 201 197 203 208 208 208 215 215 220 220 222 223 226 222 217 227 227 228 212 207 222 204 262 349 267 244 154 133 152 205 206 282 17 298 2 343 22 348 71 63 355 343 111 221 207 209 220
189 191 190 190 188 189 190 190 192 193 188 187 188 188 187 186 184 185 186 187 186 185 187 194 194 199 205 203 199 202 202 201 196 202 206 211 204 210 202 202 197 205 213 207 210 210 215 218 219 225 228 228 218 223 230 239 240 174 201 205 222 212 244 285 330 101 162 159 98 266 178 164 332 281 317 355 325 345 118 187 187 147 259 251 241
189 189 190 191 191 192 191 191 192 191 189 189 188 186 183 184 183 184 185 185 186 184 184 194 200 207 205 199 203 203 202 200 194 195 197 198 204 202 206 207 199 201 210 213 207 213 211 217 216 222 222 223 220 222 224 220 221 213 207 212 207 206 227 254 240 194 266 139 147 213 314 277 232 249 144 249 286 346 311 57 54 101 250 122 30
194 193 191 192 193 193 192 190 189 193 192 190 189 185 183 182 184 185 186 185 185 185 186 196 203 208 204 207 205 197 196 197 198 191 194 192 201 200 200 206 209 205 207 213 215 215 215 213 217 217 220 222 222 227 218 224 215 217 223 223 221 222 221 224 229 217 226 301 226 158 218 268 282 264 243 224 200 324 281 306 316 317 258 98 261
195 195 194 193 192 192 190 190 191 190 190 189 191 188 183 183 184 185 185 183 183 184 188 198 203 208 208 210 208 202 195 193 192 192 192 195 198 201 200 200 209 216 215 207 213 216 215 215 220 215 220 217 220 224 223 219 207 209 213 214 225 228 216 219 225 240 227 230 226 227 247 242 224 268 298 346 321 271 305 316 327 10 1 345 14
194 193 193 191 190 191 190 191 189 189 188 187 189 188 186 182 182 184 184 183 181 182 186 197 203 208 210 211 209 208 197 193 194 195 195 197 199 201 200 199 203 209 216 219 211 214 214 215 220 221 217 219 215 222 227 222 232 207 202 209 217 218 222 227 237 226 223 206 245 214 217 249 245 247 264 202 222 298 323 316 315 314 316 328 3
191 192 191 190 191 189 190 189 188 187 189 189 190 189 188 185 183 182 185 184 184 183 191 199 203 206 206 209 210 210 207 200 197 199 198 200 201 201 195 199 197 203 208 216 217 213 211 210 214 216 214 214 222 227 226 227 239 240 214 216 217 218 215 217 220 225 221 233 224 231 228 240 244 252 271 286 290 292 269 291 302 333 315 307 324
192 191 193 191 190 190 189 188 187 187 190 190 190 190 188 188 184 184 184 183 184 187 189 197 202 204 206 208 208 208 208 205 202 201 201 203 202 203 202 201 200 204 205 210 217 213 214 209 211 215 216 215 216 221 226 226 222 233 225 226 220 216 224 221 230 232 225 224 241 261 252 231 244 231 225 233 258 254 256 282 318 307 300 304 301
192 192 195 193 191 188 188 188 189 189 190 190 189 190 187 188 186 185 182 183 183 187 189 196 200 204 204 207 208 208 207 210 208 205 203 203 203 203 204 207 208 205 208 205 208 217 217 213 214 217 214 217 217 217 220 219 220 226 233 229 236 217 218 223 225 227 229 226 231 232 258 262 255 270 274 269 298 295 304 307 304 301 302 303 293
193 195 196 196 191 189 189 188 189 189 189 190 189 189 189 188 186 185 183 181 183 185 190 195 200 201 203 204 206 207 208 210 210 205 204 202 202 204 201 205 210 205 200 200 203 207 212 215 216 219 221 218 217 219 218 216 212 220 222 223 227 221 219 216 226 228 234 234 235 232 240 262 257 253 266 279 271 299 317 305 291 273 288 297 309
193 196 197 195 191 190 191 190 189 188 189 191 188 187 188 186 185 185 184 181 184 186 188 193 198 201 202 204 206 206 209 210 209 205 203 200 201 202 202 204 204 205 199 197 203 200 208 213 218 222 219 221 220 218 218 216 213 216 217 218 226 229 220 221 225 223 231 227 223 219 232 237 246 248 261 254 259 282 271 264 266 274 280 281 294
196 198 197 192 192 192 193 192 191 190 189 188 187 186 187 188 185 183 183 183 184 184 188 192 196 195 197 201 205 207 208 209 211 207 203 199 199 202 205 202 205 204 206 205 200 202 203 205 213 218 221 218 222 220 217 217 214 220 217 217 221 226 228 225 225 231 227 226 239 226 212 228 227 232 226 234 222 215 235 230 233 241 241 261 281
199 200 195 194 194 192 192 193 195 192 189 187 185 185 186 188 188 187 187 185 181 182 185 188 190 192 194 198 202 206 208 209 210 209 202 202 202 200 204 204 203 203 201 204 200 203 201 200 206 213 212 218 217 222 215 217 215 220 217 220 210 216 227 227 226 224 231 227 225 232 226 235 232 240 251 243 206 211 223 233 238 232 236 244 265
199 198 196 196 196 195 194 194 192 190 188 187 187 187 188 188 187 189 188 185 183 183 183 187 190 192 193 195 200 204 205 208 207 208 207 203 205 204 203 203 203 200 202 199 203 205 203 205 205 209 215 214 215 217 218 214 216 217 218 222 207 206 219 227 232 224 227 221 223 224 225 234 228 230 236 242 229 222 230 234 230 227 229 232 240
199 197 197 198 198 197 196 194 193 191 188 188 188 189 189 187 188 189 186 186 187 185 183 186 187 191 192 193 195 198 203 205 206 205 205 204 204 207 204 205 198 204 201 200 203 205 207 209 213 212 213 214 215 216 214 215 214 213 212 215 221 208 214 223 227 235 234 226 224 228 229 231 233 232 232 236 235 221 221 228 230 229 233 227 225
199 198 199 198 198 198 195 191 190 188 188 191 191 189 188 190 190 188 188 190 189 187 186 184 186 189 192 193 194 195 198 201 202 199 201 201 203 202 204 202 204 201 202 204 203 204 207 208 211 210 211 210 208 209 214 211 214 213 211 208 209 211 216 223 228 228 231 236 228 228 229 227 224 230 237 239 237 238 224 226 221 229 238 233 221
204 203 202 199 196 194 190 187 189 190 190 190 190 190 191 190 188 188 189 190 190 189 185 183 185 185 188 189 191 193 193 197 198 197 200 201 201 202 200 202 205 202 201 207 205 207 205 206 210 209 207 209 207 207 211 212 212 212 212 214 210 208 211 216 218 224 226 227 230 227 227 225 222 223 225 237 245 243 246 244 241 239 240 240 231
206 208 207 199 189 186 187 187 189 190 189 190 192 193 192 191 190 190 192 189 189 187 186 184 185 187 187 187 189 191 192 195 198 200 200 202 201 200 198 202 204 206 201 202 209 209 205 205 207 207 206 207 205 206 207 208 209 211 212 213 215 213 214 217 221 224 225 226 229 229 232 229 224 226 231 236 236 237 236 235 240 239 243 245 245
213 212 206 194 186 183 187 187 186 188 190 189 190 192 191 192 191 191 191 188 188 186 186 185 186 186 186 188 189 192 194 196 198 200 201 202 203 200 197 201 202 207 205 200 203 208 206 205 207 206 206 207 207 206 207 210 209 210 213 214 213 214 217 220 223 224 228 231 231 234 233 228 225 229 230 232 234 227 227 234 234 234 237 243 250
217 212 198 196 190 186 186 185 186 189 190 188 190 191 193 192 193 191 187 186 187 187 186 185 186 186 186 188 189 192 195 196 199 200 201 201 201 202 198 199 203 204 205 206 201 203 204 204 206 207 206 207 207 207 207 209 211 210 210 215 214 216 218 220 221 222 223 226 231 230 232 230 228 228 233 234 235 232 229 233 235 235 237 244 251
201 200 203 196 188 187 187 187 187 190 190 189 190 191 193 191 190 189 187 186 185 185 185 185 187 187 186 187 189 192 193 196 197 200 200 199 201 201 201 199 200 203 202 206 203 202 202 204 205 207 208 206 206 207 206 206 210 212 211 212 217 216 218 220 222 225 226 225 227 229 229 229 230 229 232 234 232 232 235 241 237 236 236 241 247
193 196 194 194 193 189 187 187 189 189 191 191 191 191 191 190 189 188 186 184 184 186 185 186 187 188 186 187 190 190 193 193 194 196 199 200 200 200 200 200 199 202 204 205 206 202 201 204 205 207 208 206 205 206 206 206 205 208 210 212 215 219 219 219 223 224 228 230 229 230 229 226 228 229 230 232 234 237 239 242 241 233 232 236 252
191 189 191 195 192 190 190 189 189 190 190 190 190 190 190 188 189 189 188 187 184 184 185 185 187 189 187 186 185 186 190 190 192 192 197 199 198 198 197 198 199 203 205 207 207 207 202 205 206 207 206 206 207 207 207 203 202 203 209 212 214 216 219 222 224 226 223 228 234 235 233 234 226 223 226 234 244 252 243 247 246 239 237 248 256
205 197 196 193 197 193 192 191 189 192 193 192 189 188 188 188 188 187 188 186 181 184 184 185 188 188 185 182 182 183 186 187 189 190 193 194 195 195 196 198 199 203 204 206 208 208 209 206 205 205 206 206 208 210 200 197 200 202 203 211 210 215 219 221 221 225 229 227 229 234 238 229 226 211 208 216 227 235 239 249 258 252 247 248 248
309 246 211 207 202 200 195 193 192 193 194 193 191 189 187 187 186 187 188 185 182 182 184 185 186 184 181 179 179 182 184 187 189 189 189 191 193 193 196 198 201 202 205 202 207 208 211 210 207 206 206 207 208 210 187 185 194 203 206 204 209 212 212 217 220 220 228 230 230 229 238 222 203 204 210 214 223 226 228 231 241 251 260 260 259
316 308 288 240 215 204 196 196 195 194 193 193 191 189 187 188 186 188 187 185 184 184 184 183 182 180 178 178 179 181 184 186 186 188 187 189 191 192 195 197 199 200 202 203 205 208 211 213 212 211 211 211 213 203 178 185 190 194 202 209 210 212 214 216 219 223 224 226 228 230 227 229 225 222 229 221 222 228 229 229 234 239 240 245 247
315 307 289 268 251 223 203 200 198 194 193 194 190 188 189 188 185 186 183 185 185 183 182 181 180 178 178 178 179 182 184 185 186 185 185 187 191 194 195 196 200 200 198 203 205 205 208 212 216 216 218 216 221 188 180 185 190 192 197 209 222 221 220 219 219 221 225 225 224 223 229 228 233 201 216 236 244 232 220 226 229 234 241 238 236
308 304 297 288 266 251 223 206 197 195 195 193 189 189 188 184 179 177 182 184 182 182 181 182 180 179 179 178 179 182 184 186 184 184 186 188 191 195 196 196 198 198 202 204 205 206 207 208 213 217 219 225 229 180 181 184 189 190 193 199 223 225 229 230 227 225 223 223 221 223 221 224 225 223 223 230 240 249 254 222 213 222 234 227 220
303 301 298 292 275 252 238 217 204 199 193 187 188 187 179 179 177 179 181 179 180 182 182 182 181 181 179 179 181 183 184 184 184 186 188 192 194 197 197 198 201 201 202 204 205 206 207 208 210 214 217 223 231 190 180 185 187 187 188 194 217 226 230 231 230 229 229 227 223 221 224 226 224 224 224 224 236 244 244 252 255 243 233 245 238
304 303 295 285 272 252 237 224 210 197 189 190 187 183 180 179 175 175 177 179 177 180 181 181 182 182 183 182 181 183 184 184 186 189 192 195 196 198 198 199 204 206 206 205 206 210 209 210 212 215 219 222 226 193 179 184 186 187 179 194 213 222 227 231 231 230 228 227 226 226 225 225 225 227 221 217 235 248 255 260 258 256 258 254 251
300 295 292 284 263 252 239 221 206 198 191 190 185 180 178 175 174 176 175 177 177 180 182 182 185 185 184 184 185 185 185 187 189 191 195 196 196 196 198 197 202 206 205 205 206 208 211 213 212 213 217 221 226 197 178 181 184 180 174 201 209 217 222 225 231 229 228 228 225 222 224 226 226 227 218 198 214 228 249 257 262 264 263 263 261
299 297 289 273 256 242 228 214 197 194 190 182 180 177 172 171 174 173 174 176 180 182 183 183 186 185 184 184 185 186 185 187 189 193 195 197 196 196 197 197 202 205 209 207 205 209 210 213 214 215 213 217 225 199 178 181 181 175 183 198 207 214 220 222 227 228 228 229 227 219 223 226 230 229 211 194 206 205 237 248 257 263 262 258 257
300 301 296 280 246 230 220 202 192 188 181 174 174 172 170 170 173 174 177 180 184 185 185 185 186 185 184 184 185 186 187 188 192 195 196 196 197 198 199 198 204 206 210 209 209 211 212 213 216 218 207 214 225 207 176 182 181 178 187 201 208 214 218 220 222 224 224 226 229 214 209 221 227 233 204 193 194 199 231 246 254 260 260 261 260
304 306 303 286 247 215 206 192 191 185 175 172 169 171 172 170 174 177 181 186 188 188 188 186 183 183 183 183 184 186 189 190 191 192 194 196 196 198 200 199 203 206 207 212 210 213 215 215 216 218 214 215 223 225 180 183 181 181 189 198 209 212 218 218 220 223 221 223 225 231 205 199 217 224 216 187 188 199 225 244 252 252 259 260 267
317 323 308 279 223 207 199 196 187 179 172 173 172 173 172 173 174 179 188 191 187 181 182 183 182 183 183 184 186 187 190 191 191 191 192 195 197 201 201 201 204 206 208 212 214 215 217 220 221 218 223 219 219 225 185 182 182 184 189 199 210 213 216 217 220 220 226 227 226 226 239 187 200 212 214 193 189 202 219 240 246 252 255 318 350
328 328 322 317 238 215 205 193 178 174 173 171 171 172 171 172 176 186 190 184 175 178 178 180 182 185 185 186 188 186 189 191 191 189 192 196 199 201 202 201 205 206 209 209 212 217 221 222 221 223 225 225 217 209 216 181 185 186 189 198 208 214 211 215 219 230 226 232 233 232 244 185 188 202 212 200 198 200 216 228 247 259 282 293 268
341 341 357 337 278 216 205 194 180 178 175 175 174 172 173 174 184 186 178 174 175 177 177 179 180 183 185 186 186 184 185 190 191 190 192 193 195 199 201 201 203 207 206 212 214 217 222 225 227 227 227 229 233 212 211 190 187 188 192 196 207 214 200 213 225 229 230 233 235 233 232 157 180 191 200 197 196 206 209 227 241 255 254 245 248
353 358 1 357 261 233 210 194 189 185 181 179 179 175 177 182 185 171 172 172 172 175 174 177 177 181 182 184 184 185 187 189 187 187 190 190 193 194 195 197 202 208 210 215 219 221 225 228 229 230 228 229 222 234 206 193 180 192 191 195 202 215 212 215 220 234 230 225 232 232 183 140 160 170 179 182 188 186 201 214 223 221 220 226 243
356 10 8 8 172 191 146 190 181 177 175 181 181 179 178 179 170 166 169 170 171 172 174 177 177 179 181 182 183 185 187 187 186 186 188 192 192 190 193 194 199 207 215 218 218 218 219 223 227 226 228 224 226 226 233 189 178 183 192 194 201 206 215 221 222 230 240 349 82 97 110 124 132 146 153 160 170 188 201 182 186 187 197 229 226
358 7 13 23 31 145 149 119 113 145 167 180 182 181 177 171 163 164 167 166 167 170 174 176 177 180 181 182 183 186 186 188 187 189 191 193 191 192 196 194 200 207 212 214 214 215 216 217 221 226 226 227 220 227 229 211 174 179 188 194 198 201 209 209 216 91 89 115 117 114 122 128 131 136 145 161 173 160 167 162 169 181 198 223 248
359 357 13 28 36 56 75 113 107 135 162 162 176 184 172 166 161 165 165 164 168 170 173 177 180 182 183 187 186 188 188 188 192 192 193 195 195 196 197 198 198 205 207 209 213 214 216 215 220 223 225 226 224 224 223 220 167 174 185 186 197 206 207 201 210 195 172 122 145 152 151 157 144 163 139 113 114 121 126 136 159 187 200 219 234
4 3 17 32 33 38 49 70 93 97 86 110 128 135 155 161 160 170 172 169 176 175 179 182 183 183 185 188 191 189 190 191 191 195 196 196 198 202 200 197 199 201 204 206 208 212 213 215 218 218 222 223 225 225 222 222 213 187 191 190 190 195 184 191 196 201 204 200 160 122 125 128 122 122 113 123 131 140 143 154 165 178 196 213 232
6 357 2 16 30 44 49 56 55 60 83 87 93 110 140 154 158 173 171 177 180 179 183 184 184 187 191 188 193 191 196 198 189 196 197 171 217 208 203 201 204 206 209 210 213 211 211 219 222 223 222 225 227 226 221 218 218 198 207 203 191 192 190 185 198 187 182 195 176 175 178 160 158 152 141 142 147 155 156 161 165 177 190 198 199
13 6 7 8 20 31 39 45 53 53 65 71 67 70 80 123 158 172 186 185 176 180 184 186 186 189 193 186 194 193 195 200 196 195 153 101 59 56 33 3 190 16 12 20 32 245 262 246 229 222 241 237 240 266 47 151 126 123 87 57 87 156 182 183 166 162 171 185 184 193 186 179 172 167 164 159 160 160 160 169 177 178 179 185 193
7 12 11 9 9 18 29 36 38 43 55 64 63 57 54 51 54 164 188 182 180 176 185 187 186 190 187 196 192 193 188 197 200 202 169 144 138 74 56 52 45 36 39 31 31 23 22 32 26 331 71 59 72 72 67 74 85 90 97 101 103 117 123 134 144 153 179 188 182 192 184 180 177 176 166 162 158 159 164 170 173 175 185 183 191